SCP
0 0 0 0 0 0 0 0 0 0 0 0 0 0 0 0 0 0 0 0 0 0
0 0 0 0 0 0 0 0 0 0 0 0 0 0 0 0 0 0 0 0 0 0
-0 0 0 0 0 0 0 0 0 0 0 0 0 0 0 0 0 0 0 0 0 0
-0 0 0 0 0 0 0 0 0 0 0 0 0 0 0 0 0 0 0 0 0 0
0 0 0 0 0 0 0 0 0 0 0 0 0 0 0 0 0 0 0 0 0 0
0 0 0 0 0 0 0 0 0 0 0 0 0 0 0 0 0 0 0 0 0 0
0 -0 0 0 0 0 -0 0 0 0 0 0 0 0 0 0 0 0 0 0 0 0
0 -0 0 0 0 0 0 0 0 0 0 0 0 0 0 0 0 0 0 0 0 0
0 -0 -0 0 0 0 0 0 0 0 0 0 0 0 0 0 0 0 0 0 0 0
0 0 0 0 0 0 0 0 0 0 0 0 0 0 0 0 0 0 0 0 0 0
0 0 0 0 0 0 0 0 0 0 0 0 0 0 0 0 0 0 0 0 0 0
0 0 0 0 0 0 0 0 0 0 0 0 0 0 0 0 0 0 0 0 0 0
0 0 0 0 0 0 0 0 0 0 0 0 0 0 0 0 0 0 0 0 0 0
0 0 0 0 0 0 0 0 0 0 0 0 0 0 0 0 0 0 0 0 0 0
Wind_Speed_500mb
39 42 41 34 32 32 28 23 21 17 16 18 16 15 19 24 28 30 33 33 30 29
33 39 42 38 36 33 32 26 23 21 17 14 17 18 30 30 29 33 36 33 32 36
36 35 38 38 38 41 32 26 25 21 19 20 24 23 34 30 31 35 34 32 39 38
37 36 35 37 38 37 37 28 26 24 24 25 27 29 29 34 33 33 32 41 39 33
38 32 33 29 27 35 36 32 27 26 26 27 31 33 33 32 31 34 40 32 32 31
30 27 24 29 25 27 31 31 29 26 25 28 34 33 32 31 34 38 31 29 28 27
29 30 27 28 26 19 22 25 25 28 26 29 31 34 33 36 36 29 26 24 24 26
23 29 32 33 31 29 25 29 32 31 35 30 29 34 35 33 29 27 23 21 23 26
28 35 43 38 31 30 30 25 30 34 29 26 34 33 32 29 26 26 28 28 29 31
21 21 17 17 22 28 23 20 32 23 25 32 30 30 29 25 27 28 30 34 37 40
23 29 19 7 5 5 12 18 21 28 31 30 27 24 28 31 35 37 37 39 44 48
21 12 15 16 15 15 18 21 25 28 32 33 27 26 29 35 41 45 47 46 47 48
10 11 22 19 21 18 19 22 28 30 30 31 34 32 36 38 45 53 51 48 47 45
15 22 23 24 25 24 22 24 26 27 27 32 36 38 37 42 49 50 50 49 49 47
Wind_Direction_500mb
250 251 255 258 258 256 252 255 267 258 249 251 247 242 261 281 282 290 296 293 294 288
261 255 257 261 260 253 251 258 256 251 252 240 232 266 280 279 282 288 294 288 291 297
276 276 260 256 255 258 256 250 248 240 244 235 249 280 277 283 285 291 296 293 292 290
255 271 273 258 262 267 255 247 241 245 250 239 271 279 279 283 290 292 289 292 288 285
257 262 289 256 271 267 250 252 254 250 253 253 263 267 279 281 288 289 295 289 288 284
250 251 264 260 263 264 261 251 245 242 258 272 276 270 275 282 290 296 291 291 290 286
265 245 245 267 253 248 248 245 242 255 278 288 280 273 274 286 294 291 291 296 302 301
267 271 274 266 248 231 233 251 266 267 276 282 288 275 277 288 290 287 286 300 314 318
293 279 269 266 249 241 252 268 284 279 276 281 292 282 279 284 286 287 282 295 304 313
351 339 315 283 275 260 272 254 271 275 281 292 285 277 274 276 286 290 288 295 302 305
337 337 334 355 5 315 280 274 281 285 289 291 288 269 268 275 284 287 290 296 299 300
347 7 354 341 335 332 317 301 294 291 288 289 286 271 273 276 282 288 292 296 295 295
357 343 345 353 335 324 313 308 305 297 290 283 285 282 276 280 287 292 298 301 296 294
325 321 318 324 333 328 315 312 317 310 307 297 292 294 289 288 289 292 299 301 297 294
Wind_Speed_850mb
39 42 41 34 32 32 28 23 21 17 16 18 16 15 19 24 28 30 33 33 30 29
33 39 42 38 36 33 32 26 23 21 17 14 17 18 30 30 29 33 36 33 32 36
36 35 38 38 38 41 32 26 25 21 19 20 24 23 34 30 31 35 34 32 39 38
37 36 35 37 38 37 37 28 26 24 24 25 27 29 29 34 33 33 32 41 39 33
38 32 33 29 27 35 36 32 27 26 26 27 31 33 33 32 31 34 40 32 32 31
30 27 24 29 25 27 31 31 29 26 25 28 34 33 32 31 34 38 31 29 28 27
29 30 27 28 26 19 22 25 25 28 26 29 31 34 33 36 36 29 26 24 24 26
23 29 32 33 31 29 25 29 32 31 35 30 29 34 35 33 29 27 23 21 23 26
28 35 43 38 31 30 30 25 30 34 29 26 34 33 32 29 26 26 28 28 29 31
21 21 17 17 22 28 23 20 32 23 25 32 30 30 29 25 27 28 30 34 37 40
23 29 19 7 5 5 12 18 21 28 31 30 27 24 28 31 35 37 37 39 44 48
21 12 15 16 15 15 18 21 25 28 32 33 27 26 29 35 41 45 47 46 47 48
10 11 22 19 21 18 19 22 28 30 30 31 34 32 36 38 45 53 51 48 47 45
15 22 23 24 25 24 22 24 26 27 27 32 36 38 37 42 49 50 50 49 49 47
Wind_Direction_850mb
250 251 255 258 258 256 252 255 267 258 249 251 247 242 261 281 282 290 296 293 294 288
261 255 257 261 260 253 251 258 256 251 252 240 232 266 280 279 282 288 294 288 291 297
276 276 260 256 255 258 256 250 248 240 244 235 249 280 277 283 285 291 296 293 292 290
255 271 273 258 262 267 255 247 241 245 250 239 271 279 279 283 290 292 289 292 288 285
257 262 289 256 271 267 250 252 254 250 253 253 263 267 279 281 288 289 295 289 288 284
250 251 264 260 263 264 261 251 245 242 258 272 276 270 275 282 290 296 291 291 290 286
265 245 245 267 253 248 248 245 242 255 278 288 280 273 274 286 294 291 291 296 302 301
267 271 274 266 248 231 233 251 266 267 276 282 288 275 277 288 290 287 286 300 314 318
293 279 269 266 249 241 252 268 284 279 276 281 292 282 279 284 286 287 282 295 304 313
351 339 315 283 275 260 272 254 271 275 281 292 285 277 274 276 286 290 288 295 302 305
337 337 334 355 5 315 280 274 281 285 289 291 288 269 268 275 284 287 290 296 299 300
347 7 354 341 335 332 317 301 294 291 288 289 286 271 273 276 282 288 292 296 295 295
357 343 345 353 335 324 313 308 305 297 290 283 285 282 276 280 287 292 298 301 296 294
325 321 318 324 333 328 315 312 317 310 307 297 292 294 289 288 289 292 299 301 297 294